Погода в Чернигове

Хотите узнать прогноз погоды в Чернигове? Тогда Вам сюда: Погода в Чернигове

Поиск расширенной информации на нашем сайте:

Полезная информация:

Новости сайта



02.01.2020
Опубликован Долгосрочный прогноз погоды по городам России и ближнего зарубежья на январь 2020 года.
Карты: Прогноз на январь и февраль 2020 года, Сравнение прогнозируемой аномалии приземной температуры воздуха на январь 2020 года по разным моделям.




Погода в Чернигове - сегодня

Время (UTC), дата Ветер
(°,м/с) 
Видим.   Явления Облачность Т
(°С)
Тd
(°С)
f(%) Тe
(°С)
Pmin
(гПа)
dP
(гПа)
Po
(мм)
O2
(г/м3)
Тmin Tmax R s Состояние
почвы
12 09.08.20 360 (С) 20000 м    8/8 1000 м кучево-дожд., средняя 
[Cb calv|Ac trans]
+29 +13.2 38 +35  1016.8  -1.3  752  272           
15 09.08.20 тихо ()   20000 м    9/6 1000 м кучево-дожд., средняя 
[Cb calv|Ac trans]
+26.1 +15.8 53 +36  1015.7  -1.2  752  273           
18 09.08.20 330 (СЗ) 10 км    9/3 1000 м средняя 
[Sc|Ac trans]
+21.8 +15.4 67 +31  1016.2  0.3  752  277    +29.1       
21 09.08.20 030 (СВ) н/о    6/0 средняя 
[Ac trans]
+19.8 +15.4 76 +30  1016.6  0.3  752  279           
00 10.08.20 030 (СВ) н/о  зарница  10/0 средняя 
[Ac und]
+19 +15.8 82 +31  1016.6  -0.1  752  280           
03 10.08.20 030 (СВ) 4000 м    8/0 средняя 
[Ac trans]
+17 +15.1 89 +27  1016.6  -0.1  752  282           
06 10.08.20 030 (СВ) 10 км    8/0 средняя 
[Ac und]
+20 +16.9 82 +32  1016.8  0.4  752  279  +16.6         
09 10.08.20 020 (С) 10 км  гроза без осадков{ливн. осадки}  8/8 750 м кучево-дожд., верхняя 
[Cb calv|Ci fib]
+26 +15.9 54 +36  1015.7  -0.8  752  273           
12 10.08.20 050 (СВ) 10 км  слаб. ливневой дождь, в посл. час гроза  8/4 1000 м кучево-дожд., средняя 
[Cb cap|Ac und]
+22.5 +17 71 +35  1016.2  0.3  752  276      0.0     
15 10.08.20 тихо ()   10 км  {ливн. осадки}  8/5 1000 м кучево-дожд., средняя 
[Cb cap|Ac und]
+24.8 +16.5 60 +36  1015.4  -0.7  751  274           
18 10.08.20 тихо ()   10 км  {ливн. осадки}  3/0 средняя 
[Ac trans]
+19.1 +16.4 84 +30  1015.9  0.2  751  279    +27.2  0.0     
21 10.08.20 тихо ()   н/о  дымка  3/0 средняя 
[Ac trans]
+15.2 +14 93 +22  1016.2  0.1  751  284           
00 11.08.20 050 (СВ) н/о  дымка  ясно 
+14.4 +13.7 96 +22  1015.8  -0.4  751  285           
03 11.08.20 тихо ()   4000 м  дымка  ясно 
+13.7 +13.3 97 +20  1016  0.2  751  286           
06 11.08.20 270 (З) 10 км    1/0 верхняя 
[Ci fib]
+21.4 +17.7 79 +35  1015.3  -0.3  751  277  +13.3         
09 11.08.20 340 (С) 20000 м    6/5 1000 м кучево-дожд., верхняя 
[Cb calv|Ci fib]
+27 +15.8 50 +37  1014.7  -0.4  751  272           
12 11.08.20 330 (СЗ) 20000 м    8/8 1200 м кучево-дожд. 
[Cb calv]
+28.4 +14.3 42 +36  1013.3  -1.3  750  271           
15 11.08.20 тихо ()   10 км  в посл. час ливневой дождь{гроза}  10/3 1200 м кучево-дожд., средняя, верхняя 
[Cb calv|Ac und|Ci fib]
+22 +17.7 77 +36  1013.8  0.2  750  276           
18 11.08.20 тихо ()   10 км  в посл. час гроза{ливн. осадки}  10/8 1000 м кучево-дожд., средняя, верхняя 
[Cb calv|Ac und|Ci fib]
+19.6 +16.5 82 +31  1014.7  0.8  751  279    +29.6     
21 11.08.20 010 (С) н/о  {гроза}  6/0 средняя, верхняя 
[Ac und|Ci fib]
+18 +14.4 79 +26  1016  1.2  751  281           
00 12.08.20 330 (СЗ) н/о  {гроза}  4/0 средняя, верхняя 
[Ac und|Ci fib]
+13.6 +10.3 80 +16  1016.6  0.3  752  287           
03 12.08.20 340 (С) 10 км    3/0 средняя 
[Ac und]
+11 +8.8 86 +11  1017  0.3  752  290           
06 12.08.20 340 (С) 20000 м    ясно 
+15.6 +11.3 76 +19  1017.5  0.7  752  285  +10.5         
09 12.08.20 340 (С) 20000 м    9/6 1000 м кучево-дожд., средняя 
[Cb calv|Ac trans]
+18.6 +9.3 55 +19  1017.6  0.3  753  282           
12 12.08.20 340 (С) 20000 м    9/6 1000 м кучево-дожд., средняя 
[Cb calv|Ac trans]
+19.6 +10.1 54 +21  1017.7  0.1  753  281           
Время (UTC), дата Ветер
(°,м/с) 
Видим.   Явления Облачность Т
(°С)
Тd
(°С)
f(%) Тe
(°С)
Pmin
(гПа)
dP
(гПа)
Po
(мм)
O2
(г/м3)
Тmin Tmax R s Состояние
почвы

Для получения пояснительной информации подведите курсор к названию столбца.

ПОГОДА в Чернигове - архив

Всё, что Вы хотите узнать о погоде в Чернигове - удобно и подробно!

Выберите нужную дату (начиная с 1 января 2019* года) и нажмите кнопку "Найти".
Будут отображены архивные сводки погоды по пункту Чернигов, начиная с указанной даты.


Отображать данные в формате CSV (для использования в таблицах Excel)


Внимание! Наш архив погоды предназначен исключительно для личного некоммерческого использования в познавательных целях. Если Вам необходимы официальные справки о состоянии погоды (для производственных, юридических, коммерческих и т.п. целей), обращайтесь в органы Росгидромета.

*Примечание: данная дата относится к архиву по метеостанциям СССР (Россия, СНГ, Балтия).
Архив по метеостанциям Зарубежной Европы и Азии (кроме Китая) хранится 10 дней, по другим регионам земного шара (Китай, Африка, Америка, Австралия, Океания) - 1 день.

Чернигов - район местоположения метеостанции


Название, широта, долгота, высота метеостанции:
Чернигов 51.5°ш. 31.2°д. 141 м над ур. моря [Украина]

Дополнительная информация

В oтличие oт бoльшинства пoгoдных сайтoв мы публикуем пoдрoбную метеoинфoрмацию в детальнoм прoфессиoнальнoм фoрмате.

Характеристики температуры и влажнoсти вoздуха измеряются на высoте 2 м в тени вдали oт зданий и деревьев.
Скoрoсть ветра измеряется на высoте 10 м (на урoвне рoста челoвека скoрoсть ветра ниже в 1.5-2 раза). Если метеoстанция нахoдится в гoрoде или в лесу, тo скoрoсть ветра занижена на 2-4 м/с пo сравнению с oткрытым местoм. Скoрoсть ветра над акватoриями крупных рек и oзёр, а также на вершинах хoлмoв на 2-5 м/с выше, чем в oбычных услoвиях.
Атмoсфернoе давление в разных тoчках местнoсти мoжет значительнo oтличаться oт давления на метеoстанции, в зависимoсти oт услoвий рельефа (при пoдъёме на 10 м давление пoнижается примернo на 1 мм рт.ст.).